Douglas, WY

5:52 PM MST on December 05, 2016 (GMT -0700)
Converse County

Weather History for KDGW - January, 2014

Change the Weather History Date:

Friday, January 10, 2014

  Actual Average Record
Temperature  
Mean Temperature 29 °F 25 °F  
Max Temperature 35 °F 39 °F 60 °F (1990)
Min Temperature 22 °F 11 °F -16 °F (2011)
Degree Days  
Heating Degree Days 36 40  
Month to date heating degree days 447 402  
Since 1 July heating degree days 3526 3491  
Cooling Degree Days 0 0  
Month to date cooling degree days 0 0  
Year to date cooling degree days 0 0  
Moisture  
Dew Point 17 °F    
Average Humidity 63    
Maximum Humidity 78    
Minimum Humidity 47    
Precipitation  
Precipitation T in 0.01 in 0.01 in (2012)
Month to date precipitation 0.19 0.10  
Year to date precipitation 0.19 0.10  
Sea Level Pressure  
Sea Level Pressure 29.75 in    
Wind  
Wind Speed 14 mph (NW)    
Max Wind Speed 31 mph    
Max Gust Speed 38 mph    
Visibility 10 miles    
Events Snow    
T = Trace of Precipitation, MM = Missing Value Source: NWS Daily Summary

Daily Weather History Graph

Daily Weather History Graph

Search for Another Location

Airport or City:

Trip Planner

Search our weather history database for the weather conditions in past years. The results will help you decide how hot, cold, wet, or windy it might be!

Date:

Astronomy

Jan. 10, 2014 Rise Set
Actual Time 7:31 AM MST 4:47 PM MST
Civil Twilight 6:59 AM MST 5:18 PM MST
Nautical Twilight 6:24 AM MST 5:54 PM MST
Astronomical Twilight 5:50 AM MST 6:28 PM MST
Moon 12:54 PM MST (1/10) 2:39 AM MST (1/10)
Length of Visible Light 10h 19m
Length of Day
9h 16m
Waxing Gibbous, 75% of the Moon is Illuminated
Jan 10
Waxing Gibbous
Jan 15
Full
Jan 23
Last Quarter
Jan 30
New
Feb 6
First Quarter

Hourly Weather History & Observations

Time (MST) Temp. Windchill Dew Point Humidity Pressure Visibility Wind Dir Wind Speed Gust Speed Precip Events Conditions
12:53 AM 28.9 °F 20.4 °F 19.0 °F 67% 29.70 in 10.0 mi NW 9.2 mph - N/A   Overcast
1:08 AM 28.4 °F 18.5 °F 19.4 °F 69% 29.66 in 10.0 mi NW 11.5 mph - 0.00 in Snow Light Snow
1:53 AM 28.0 °F 18.1 °F 21.0 °F 75% 29.70 in 10.0 mi NW 11.5 mph - 0.00 in   Overcast
2:53 AM 28.9 °F 18.2 °F 21.0 °F 72% 29.70 in 10.0 mi NW 13.8 mph - N/A   Overcast
3:43 AM 28.4 °F 17.5 °F 21.2 °F 74% 29.67 in 10.0 mi NW 13.8 mph - N/A   Overcast
3:53 AM 28.0 °F 17.0 °F 21.9 °F 78% 29.72 in 10.0 mi NW 13.8 mph - N/A   Overcast
4:53 AM 28.0 °F 20.8 °F 23.0 °F 81% 29.72 in 10.0 mi NW 6.9 mph - 0.00 in   Overcast
5:53 AM 28.0 °F 16.1 °F 16.0 °F 61% 29.70 in 10.0 mi West 16.1 mph - N/A   Overcast
6:53 AM 24.1 °F 18.2 °F 14.0 °F 65% 29.71 in 10.0 mi NW 4.6 mph - N/A   Clear
7:53 AM 25.0 °F 13.1 °F 10.0 °F 53% 29.71 in 10.0 mi West 13.8 mph - N/A   Clear
8:53 AM 25.0 °F 20.7 °F 10.9 °F 55% 29.74 in 10.0 mi WNW 3.5 mph - N/A   Clear
9:53 AM 28.9 °F 16.5 °F 12.9 °F 51% 29.73 in 10.0 mi WNW 18.4 mph 21.9 mph N/A   Partly Cloudy
10:53 AM 32.0 °F 20.1 °F 15.1 °F 50% 29.71 in 10.0 mi WNW 19.6 mph 28.8 mph N/A   Clear
11:53 AM 33.1 °F 20.1 °F 16.0 °F 50% 29.68 in 10.0 mi WNW 25.3 mph 34.5 mph N/A   Clear
12:53 PM 33.1 °F 21.2 °F 17.1 °F 52% 29.68 in 10.0 mi WNW 20.7 mph 29.9 mph N/A   Mostly Cloudy
1:53 PM 33.1 °F 23.4 °F 18.0 °F 54% 29.70 in 10.0 mi NW 13.8 mph - N/A   Clear
2:53 PM 35.1 °F 24.1 °F 19.0 °F 52% 29.70 in 10.0 mi WNW 19.6 mph - N/A   Clear
3:53 PM 34.0 °F 25.0 °F 19.0 °F 54% 29.73 in 10.0 mi WNW 12.7 mph - N/A   Clear
4:53 PM 30.9 °F 20.2 °F 19.0 °F 61% 29.76 in 10.0 mi WNW 15.0 mph - N/A   Clear
5:53 PM 27.0 °F 16.7 °F 18.0 °F 69% 29.80 in 10.0 mi WNW 11.5 mph - N/A   Clear
6:53 PM 25.0 °F 16.3 °F 17.1 °F 72% 29.83 in 10.0 mi NNW 8.1 mph - N/A   Clear
7:53 PM 24.1 °F 15.2 °F 16.0 °F 71% 29.85 in 10.0 mi NNW 8.1 mph - N/A   Clear
8:53 PM 26.1 °F 13.6 °F 17.1 °F 69% 29.87 in 10.0 mi NW 16.1 mph - N/A   Clear
9:53 PM 27.0 °F 15.2 °F 18.0 °F 69% 29.90 in 10.0 mi NW 15.0 mph - N/A   Overcast
10:53 PM 28.0 °F 15.7 °F 18.0 °F 66% 29.88 in 10.0 mi NW 17.3 mph - N/A   Overcast
11:53 PM 24.1 °F 12.0 °F 16.0 °F 71% 29.91 in 10.0 mi NNW 13.8 mph - N/A   Partly Cloudy